Weather History for Phuket, Thailand

Change the Weather History Date:

Saturday, May 18, 2013

  Actual Average Record
Temperature  
Mean Temperature 81 °F -  
Max Temperature 88 °F 88 °F 100 °F (1998)
Min Temperature 74 °F 77 °F 68 °F (2014)
Cooling Degree Days 16    
Growing Degree Days 31 (Base 50)    
Moisture  
Dew Point 76 °F    
Average Humidity 82    
Maximum Humidity 97    
Minimum Humidity 66    
Precipitation  
Precipitation 0.16 in 0.41 in - ()
Sea Level Pressure  
Sea Level Pressure 29.82 in    
Wind  
Wind Speed 4 mph ()    
Max Wind Speed 16 mph    
Max Gust Speed -    
Visibility 4.9 miles    
Events Rain , Thunderstorm    
Averages and records for this station are not official NWS values.
T = Trace of Precipitation, MM = Missing Value Source: Averaged Metar Reports

Daily Weather History Graph

Daily Weather History Graph

Search for Another Location

Airport:

Trip Planner

Search our weather history database for the weather conditions in past years. The results will help you decide how hot, cold, wet, or windy it might be!

Date:

Astronomy

May. 18, 2013 Rise Set
Actual Time 6:07 AM ICT 6:38 PM ICT
Civil Twilight 5:45 AM ICT 7:00 PM ICT
Nautical Twilight 5:19 AM ICT 7:26 PM ICT
Astronomical Twilight 4:53 AM ICT 7:53 PM ICT
Moon 12:31 PM ICT (5/18) 12:18 AM ICT (5/18)
Length of Visible Light 13h 14m
Length of Day
12h 30m
Waxing Crescent, 50% of the Moon is Illuminated
May 18
Waxing Crescent
May 25
Full
Jun 1
Last Quarter
Jun 8
New
Jun 17
First Quarter

Hourly Weather History & Observations

Time (ICT) Temp. Heat Index Dew Point Humidity Pressure Visibility Wind Dir Wind Speed Gust Speed Precip Events Conditions
12:00 AM 78.8 °F - 77.0 °F 94% 29.86 in 5.0 mi Calm Calm - N/A   Mostly Cloudy
12:30 AM 78.8 °F - 77.0 °F 94% 29.83 in 5.0 mi Variable 2.3 mph - N/A   Mostly Cloudy
1:00 AM 80 °F - 79 °F 97% 29.79 in 5 mi Calm Calm - -   Mist
1:00 AM 78.8 °F - 77.0 °F 94% 29.80 in 4.3 mi Calm Calm - N/A   Mostly Cloudy
1:30 AM 78.8 °F - 77.0 °F 94% 29.80 in 4.3 mi Calm Calm - N/A   Mostly Cloudy
2:00 AM 78.8 °F - 77.0 °F 94% 29.80 in 4.3 mi Calm Calm - N/A   Mostly Cloudy
2:30 AM 78.8 °F - 75.2 °F 89% 29.80 in 4.3 mi Calm Calm - N/A Rain Light Rain
3:00 AM 78.8 °F - 77.0 °F 94% 29.80 in 4.3 mi Calm Calm - N/A   Mostly Cloudy
3:30 AM 78.8 °F - 77.0 °F 94% 29.80 in 4.3 mi Calm Calm - N/A   Mostly Cloudy
4:00 AM 78.8 °F - 75.2 °F 89% 29.80 in 4.3 mi Calm Calm - N/A   Mostly Cloudy
4:30 AM 78.8 °F - 75.2 °F 89% 29.80 in 4.3 mi Variable 1.2 mph - N/A   Mostly Cloudy
5:00 AM 78.8 °F - 75.2 °F 89% 29.80 in 4.3 mi Variable 1.2 mph - N/A   Mostly Cloudy
5:30 AM 78.8 °F - 73.4 °F 83% 29.83 in 4.3 mi NW 16.1 mph - N/A   Mostly Cloudy
6:00 AM 77.0 °F - 73.4 °F 89% 29.83 in 4.3 mi NW 10.4 mph - N/A Thunderstorm Thunderstorm
6:30 AM 77.0 °F - 75.2 °F 94% 29.83 in - North - - N/A Rain , Thunderstorm Thunderstorms and Rain
7:00 AM 78 °F - 76 °F 91% 29.79 in 4 mi Calm Calm - - Rain , Thunderstorm Thunderstorms and Rain
7:00 AM 77.0 °F - 75.2 °F 94% 29.83 in 4.3 mi West 8.1 mph - N/A Rain Light Rain
7:30 AM 77.0 °F - 75.2 °F 94% 29.83 in 4.3 mi Variable 2.3 mph - N/A   Mostly Cloudy
8:00 AM 77.0 °F - 75.2 °F 94% 29.86 in 4.3 mi Calm Calm - N/A Rain Light Rain
8:30 AM 77.0 °F - 73.4 °F 89% 29.89 in 4.3 mi Variable 2.3 mph - N/A   Mostly Cloudy
9:00 AM 78.8 °F - 75.2 °F 89% 29.86 in 4.3 mi Calm Calm - N/A   Overcast
9:30 AM 78.8 °F - 75.2 °F 89% 29.86 in 5.0 mi NW 4.6 mph - N/A   Overcast
10:00 AM 80.6 °F 86.2 °F 75.2 °F 84% 29.86 in 5.0 mi Variable 2.3 mph - N/A   Mostly Cloudy
10:30 AM 86.0 °F 96.9 °F 77.0 °F 74% 29.86 in 5.0 mi Variable 2.3 mph - N/A   Mostly Cloudy
11:00 AM 87.8 °F 97.6 °F 75.2 °F 66% 29.83 in 5.0 mi NNW 3.5 mph - N/A   Mostly Cloudy
11:30 AM 84.2 °F 94.1 °F 77.0 °F 79% 29.83 in 5.0 mi Variable 4.6 mph - N/A   Mostly Cloudy
12:00 PM 86.0 °F 95.1 °F 75.2 °F 70% 29.83 in 5.0 mi East 4.6 mph - N/A   Mostly Cloudy
12:30 PM 86.0 °F 96.9 °F 77.0 °F 74% 29.83 in 5.0 mi West 11.5 mph - N/A   Mostly Cloudy
1:00 PM 86 °F - 77 °F 68% 29.81 in 6 mi WNW 8.1 mph - -   Partly Cloudy
1:00 PM 86.0 °F 95.1 °F 75.2 °F 70% 29.83 in 5.0 mi West 13.8 mph - N/A   Mostly Cloudy
1:30 PM 86.0 °F 95.1 °F 75.2 °F 70% 29.83 in 5.0 mi WNW 10.4 mph - N/A   Mostly Cloudy
2:00 PM 86.0 °F 96.9 °F 77.0 °F 74% 29.80 in 5.0 mi West 11.5 mph - N/A   Mostly Cloudy
2:30 PM 86.0 °F 96.9 °F 77.0 °F 74% 29.77 in 5.6 mi WNW 10.4 mph - N/A   Mostly Cloudy
3:00 PM 86.0 °F 96.9 °F 77.0 °F 74% 29.77 in 5.6 mi West 11.5 mph - N/A   Mostly Cloudy
3:30 PM 87.8 °F 99.7 °F 77.0 °F 70% 29.77 in 5.6 mi West 10.4 mph - N/A   Mostly Cloudy
4:00 PM 87.8 °F 99.7 °F 77.0 °F 70% 29.74 in 5.6 mi West 11.5 mph - N/A   Mostly Cloudy
4:30 PM 86.0 °F 93.4 °F 73.4 °F 66% 29.74 in 5.6 mi West 11.5 mph - N/A   Mostly Cloudy
5:00 PM 86.0 °F 95.1 °F 75.2 °F 70% 29.74 in 5.6 mi West 12.7 mph - N/A   Mostly Cloudy
5:30 PM 86.0 °F 93.4 °F 73.4 °F 66% 29.77 in 5.0 mi WNW 9.2 mph - N/A   Mostly Cloudy
6:00 PM 84.2 °F 90.9 °F 73.4 °F 70% 29.77 in 5.0 mi West 10.4 mph - N/A   Mostly Cloudy
6:30 PM 84.2 °F 92.3 °F 75.2 °F 74% 29.77 in 5.0 mi WNW 8.1 mph - N/A   Mostly Cloudy
7:00 PM 85 °F - 76 °F 68% 29.75 in 6 mi WNW 3.5 mph - -   Scattered Clouds
7:00 PM 82.4 °F 89.5 °F 75.2 °F 79% 29.80 in 5.0 mi WNW 4.6 mph - N/A   Mostly Cloudy
7:30 PM 82.4 °F 89.5 °F 75.2 °F 79% 29.80 in 5.0 mi West 5.8 mph - N/A   Mostly Cloudy
8:00 PM 82.4 °F 89.5 °F 75.2 °F 79% 29.83 in 5.0 mi Variable 3.5 mph - N/A   Mostly Cloudy
9:00 PM 82.4 °F 89.5 °F 75.2 °F 79% 29.86 in 5.0 mi SW 3.5 mph - N/A   Mostly Cloudy
9:30 PM 84.2 °F 92.3 °F 75.2 °F 74% 29.86 in 5.0 mi WSW 4.6 mph - N/A   Mostly Cloudy
10:00 PM 84.2 °F 92.3 °F 75.2 °F 74% 29.86 in 5.0 mi West 10.4 mph - N/A   Mostly Cloudy
10:30 PM 84.2 °F 92.3 °F 75.2 °F 74% 29.89 in 5.0 mi Variable 3.5 mph - N/A   Mostly Cloudy
11:00 PM 80.6 °F 87.1 °F 77.0 °F 89% 29.89 in 4.3 mi SW 4.6 mph - N/A Rain Light Rain
11:30 PM 82.4 °F 90.9 °F 77.0 °F 84% 29.86 in 5.0 mi Variable 3.5 mph - N/A   Mostly Cloudy